STARLINK-2160, 47746

Orbit data source: Space-Track

STARLINK-2160, 47746 is a payload satellite owned by SpaceX/Seattle (US) in LEO that was launched on Thu, 04 Mar 2021 UTC via an FALCON 9 launch vehicle from the Air Force Eastern Test Range (AFETR). Payload-class satellites include a variety of spacecraft equipped with specific instruments for various scientific and technological missions. These include communications satellites like Starlink; space stations such as the ISS; scientific satellites like the Hubble; Earth observation satellites from companies like Planet Labs, Umbra, and HawkEye 360; GPS; miniature CubeSats for education and research; and military/defense satellites.

Loading next visibility...
Identifier
47746, 2021-017AA
Orbit
LEO
Country
Flag of USUS
Related business
Manufacturer
SpaceX/Seattle
Mission
Operational Commercial Communications
Bus & Motor
STARLINK, Unknown motor
Mass
260 kg wet, ~248 kg dry
Launch date (UTC)
2021-03-04 (5 years ago)
Launch vehicle
FALCON 9
Launch site
Air Force Eastern Test Range (AFETR)
Object type
Payload
Rocket body
Debris
Shape & HBR
Box + 1 Pan, 10.1 m
Radar Cross Section
13.562 m², Large (>1 m²)

Expand to show TLE details & history
Last TLE update: 10 hours ago

TLE from 10 hours ago
0 STARLINK-2160
1 47746U 21017AA  25346.95591310 -.00005287  00000-0 -33639-3 0  9993
2 47746  53.0565 240.9862 0001497  87.0787 273.0374 15.06388525264644
Epoch: 2025-12-12T22:56Z
TLE epoch observation values (Epoch: 2025-12-12T22:56:30.891Z)
Latitude
0.00002°
Longitude
174.96739°
Altitude
548.071 km
Speed
7.589 km/s
True Right ascension
16h 03m 56s
True Declination
0° 00' 00"
Sunlit
Object was in daylight at epoch
Visualization orbit readout
Latitude
Unknown
Longitude
Unknown
Altitude
Unknown
Speed
Unknown
Apparent Right ascension
Unknown
Apparent Declination
Unknown
Sunlit
N/A
Visualization observer readout
Local Sidereal Time
07:31:22
Azimuth
Unknown
Elevation
Unknown
Doppler factor
Unknown
Orbital elements
Apogee altitude
548.554 km
Perigee altitude
546.48 km
Semi-major axis
6,925.654 km
Eccentricity
0.00015
Inclination
53.0565°
RAAN
240.9862°
Arg. of periapsis
87.0787°
True anomaly
273.02027°
Mean anomaly
273.0374°
Eccentric anomaly
273.02883°
Mean motion
3.76575 °/min
Orbital period
95.6 mins
BSTAR
-0.00033639
Loading maneuver chart data...
Computing Atmospheric mass density...

Documentation

Showing up to 5 results
|